Leesburg, FL

8:51 AM EDT on July 21, 2017 (GMT -0400)
Leesburg Regional

Weather History for KLEE - November, 2012

Change the Weather History Date:

Thursday, November 29, 2012

  Actual Average Record
Temperature  
Mean Temperature 62 °F -  
Max Temperature 75 °F 74 °F 86 °F (1978)
Min Temperature 48 °F 54 °F 33 °F (1959)
Degree Days  
Heating Degree Days 4    
Growing Degree Days 12 (Base 50)    
Moisture  
Dew Point 52 °F    
Average Humidity 76    
Maximum Humidity 97    
Minimum Humidity 41    
Precipitation  
Precipitation 0.00 in - - ()
Sea Level Pressure  
Sea Level Pressure 30.28 in    
Wind  
Wind Speed 7 mph (NE)    
Max Wind Speed 14 mph    
Max Gust Speed 23 mph    
Visibility 8 miles    
Events      
Averages and records for this station are not official NWS values.
T = Trace of Precipitation, MM = Missing Value Source: NWS Daily Summary

Daily Weather History Graph

Daily Weather History Graph

Search for Another Location

Airport or City:

Trip Planner

Search our weather history database for the weather conditions in past years. The results will help you decide how hot, cold, wet, or windy it might be!

Date:

Astronomy

Nov. 29, 2012 Rise Set
Actual Time 7:01 AM EST 5:29 PM EST
Civil Twilight 6:36 AM EST 5:55 PM EST
Nautical Twilight 6:07 AM EST 6:24 PM EST
Astronomical Twilight 5:38 AM EST 6:52 PM EST
Moon 6:31 PM EST (11/29) 7:46 AM EST (11/29)
Length of Visible Light 11h 18m
Length of Day
10h 27m
Full, 99% of the Moon is Illuminated
Nov 29
Full
Dec 6
Last Quarter
Dec 13
New
Dec 20
First Quarter
Dec 28
Full

Hourly Weather History & Observations

Time (EST) Temp. Dew Point Humidity Pressure Visibility Wind Dir Wind Speed Gust Speed Precip Events Conditions
12:53 AM 52.0 °F 51.1 °F 97% 30.28 in 6.0 mi North 6.9 mph - N/A   Clear
1:53 AM 51.1 °F 50.0 °F 96% 30.27 in 6.0 mi North 6.9 mph - N/A   Clear
2:53 AM 50.0 °F 48.9 °F 96% 30.27 in 5.0 mi North 6.9 mph - N/A   Clear
3:53 AM 50.0 °F 48.9 °F 96% 30.26 in 5.0 mi North 6.9 mph - N/A   Clear
4:53 AM 50.0 °F 48.9 °F 96% 30.26 in 6.0 mi North 5.8 mph - N/A   Clear
5:53 AM 50.0 °F 48.0 °F 93% 30.27 in 6.0 mi North 4.6 mph - N/A   Clear
6:53 AM 48.9 °F 48.0 °F 97% 30.28 in 5.0 mi NNW 3.5 mph - N/A   Clear
7:53 AM 53.1 °F 51.1 °F 93% 30.30 in 6.0 mi North 5.8 mph - N/A   Clear
8:53 AM 60.1 °F 54.0 °F 80% 30.31 in 10.0 mi NNE 6.9 mph - N/A   Clear
9:53 AM 68.0 °F 55.9 °F 65% 30.32 in 10.0 mi NNE 9.2 mph - N/A   Clear
11:53 AM 75.0 °F 55.0 °F 50% 30.30 in 10.0 mi ENE 11.5 mph - N/A   Clear
12:53 PM 75.0 °F 54.0 °F 48% 30.28 in 10.0 mi East 13.8 mph 23.0 mph N/A   Clear
1:53 PM 75.9 °F 52.0 °F 43% 30.26 in 10.0 mi East 12.7 mph 18.4 mph N/A   Clear
2:53 PM 75.0 °F 50.0 °F 41% 30.25 in 10.0 mi ENE 9.2 mph - N/A   Clear
3:53 PM 73.9 °F 51.1 °F 45% 30.25 in 10.0 mi East 10.4 mph - N/A   Clear
4:53 PM 70.0 °F 52.0 °F 53% 30.27 in 10.0 mi East 6.9 mph - N/A   Clear
5:53 PM 66.0 °F 52.0 °F 60% 30.27 in 10.0 mi East 5.8 mph - N/A   Clear
6:53 PM 63.0 °F 52.0 °F 67% 30.29 in 10.0 mi ENE 4.6 mph - N/A   Clear
7:53 PM 62.1 °F 53.1 °F 72% 30.30 in 10.0 mi ENE 4.6 mph - N/A   Scattered Clouds
8:53 PM 59.0 °F 52.0 °F 78% 30.30 in 10.0 mi NNE 5.8 mph - N/A   Clear
9:53 PM 57.0 °F 54.0 °F 89% 30.30 in 10.0 mi NE 5.8 mph - N/A   Clear
10:53 PM 55.9 °F 55.0 °F 97% 30.30 in 9.0 mi NNE 5.8 mph - N/A   Clear
11:53 PM 55.9 °F 55.0 °F 97% 30.28 in 8.0 mi NNE 5.8 mph - N/A   Clear